<?xml version="1.0" encoding="UTF-8" standalone="no" ?>
<gpx xmlns="http://www.topografix.com/GPX/1/1" xmlns:xsi="http://www.w3.org/2001/XMLSchema-instance" xsi:schemaLocation="http://www.topografix.com/GPX/1/1 http://www.topografix.com/GPX/1/1/gpx.xsd" version="1.1" creator="VisuGPX - https://www.visugpx.com">
  <metadata>
    <name>Vallées du Lunain</name>
    <desc><![CDATA[Ce circuit est à cheval sur deux départements, l\'Yonne et la Seine-et-Marne. Il part de Chéroy et gagne Villebéon parmi champs et bois.]]></desc>
  </metadata>
  <trk>
    <name><![CDATA[VL]]></name>
    <trkseg>
      <trkpt lat="48.20298" lon="2.99931">
        <ele>146</ele>
        <time>2009-10-18T14:24:50.000Z</time>
      </trkpt>
      <trkpt lat="48.20175" lon="2.99384">
        <ele>152</ele>
        <time>2009-10-18T14:24:50.000Z</time>
      </trkpt>
      <trkpt lat="48.20176" lon="2.99243">
        <ele>152</ele>
        <time>2009-10-18T14:24:50.000Z</time>
      </trkpt>
      <trkpt lat="48.20204" lon="2.99142">
        <ele>151</ele>
        <time>2009-10-18T14:24:50.000Z</time>
      </trkpt>
      <trkpt lat="48.20215" lon="2.98773">
        <ele>143</ele>
        <time>2009-10-18T14:24:50.000Z</time>
      </trkpt>
      <trkpt lat="48.20354" lon="2.98768">
        <ele>143</ele>
        <time>2009-10-18T14:24:50.000Z</time>
      </trkpt>
      <trkpt lat="48.20468" lon="2.98487">
        <ele>150</ele>
        <time>2009-10-18T14:24:50.000Z</time>
      </trkpt>
      <trkpt lat="48.20574" lon="2.97977">
        <ele>141</ele>
        <time>2009-10-18T14:24:50.000Z</time>
      </trkpt>
      <trkpt lat="48.20584" lon="2.97795">
        <ele>144</ele>
        <time>2009-10-18T14:24:50.000Z</time>
      </trkpt>
      <trkpt lat="48.20781" lon="2.97085">
        <ele>142</ele>
        <time>2009-10-18T14:24:50.000Z</time>
      </trkpt>
      <trkpt lat="48.20857" lon="2.97153">
        <ele>143</ele>
        <time>2009-10-18T14:24:50.000Z</time>
      </trkpt>
      <trkpt lat="48.20926" lon="2.97033">
        <ele>145</ele>
        <time>2009-10-18T14:24:50.000Z</time>
      </trkpt>
      <trkpt lat="48.21122" lon="2.97371">
        <ele>139</ele>
        <time>2009-10-18T14:24:50.000Z</time>
      </trkpt>
      <trkpt lat="48.2141" lon="2.97994">
        <ele>126</ele>
        <time>2009-10-18T14:24:50.000Z</time>
      </trkpt>
      <trkpt lat="48.21427" lon="2.98189">
        <ele>133</ele>
        <time>2009-10-18T14:24:50.000Z</time>
      </trkpt>
      <trkpt lat="48.21494" lon="2.98385">
        <ele>137</ele>
        <time>2009-10-18T14:24:50.000Z</time>
      </trkpt>
      <trkpt lat="48.21565" lon="2.98446">
        <ele>141</ele>
        <time>2009-10-18T14:24:50.000Z</time>
      </trkpt>
      <trkpt lat="48.21606" lon="2.98353">
        <ele>146</ele>
        <time>2009-10-18T14:24:50.000Z</time>
      </trkpt>
      <trkpt lat="48.21683" lon="2.98253">
        <ele>150</ele>
        <time>2009-10-18T14:24:50.000Z</time>
      </trkpt>
      <trkpt lat="48.21989" lon="2.98223">
        <ele>146</ele>
        <time>2009-10-18T14:24:50.000Z</time>
      </trkpt>
      <trkpt lat="48.22244" lon="2.97708">
        <ele>151</ele>
        <time>2009-10-18T14:24:50.000Z</time>
      </trkpt>
      <trkpt lat="48.22339" lon="2.97595">
        <ele>153</ele>
        <time>2009-10-18T14:24:50.000Z</time>
      </trkpt>
      <trkpt lat="48.22321" lon="2.9748">
        <ele>152</ele>
        <time>2009-10-18T14:24:50.000Z</time>
      </trkpt>
      <trkpt lat="48.22093" lon="2.97329">
        <ele>131</ele>
        <time>2009-10-18T14:24:50.000Z</time>
      </trkpt>
      <trkpt lat="48.22055" lon="2.96811">
        <ele>128</ele>
        <time>2009-10-18T14:24:50.000Z</time>
      </trkpt>
      <trkpt lat="48.21989" lon="2.96628">
        <ele>138</ele>
        <time>2009-10-18T14:24:50.000Z</time>
      </trkpt>
      <trkpt lat="48.21994" lon="2.96514">
        <ele>140</ele>
        <time>2009-10-18T14:24:50.000Z</time>
      </trkpt>
      <trkpt lat="48.21904" lon="2.96432">
        <ele>143</ele>
        <time>2009-10-18T14:24:50.000Z</time>
      </trkpt>
      <trkpt lat="48.21973" lon="2.96299">
        <ele>146</ele>
        <time>2009-10-18T14:24:50.000Z</time>
      </trkpt>
      <trkpt lat="48.21991" lon="2.96205">
        <ele>148</ele>
        <time>2009-10-18T14:24:50.000Z</time>
      </trkpt>
      <trkpt lat="48.21987" lon="2.96124">
        <ele>148</ele>
        <time>2009-10-18T14:24:50.000Z</time>
      </trkpt>
      <trkpt lat="48.22006" lon="2.95963">
        <ele>145</ele>
        <time>2009-10-18T14:24:50.000Z</time>
      </trkpt>
      <trkpt lat="48.21701" lon="2.95784">
        <ele>149</ele>
        <time>2009-10-18T14:24:50.000Z</time>
      </trkpt>
      <trkpt lat="48.21747" lon="2.95522">
        <ele>149</ele>
        <time>2009-10-18T14:24:50.000Z</time>
      </trkpt>
      <trkpt lat="48.21635" lon="2.95554">
        <ele>150</ele>
        <time>2009-10-18T14:24:50.000Z</time>
      </trkpt>
      <trkpt lat="48.21599" lon="2.95541">
        <ele>150</ele>
        <time>2009-10-18T14:24:50.000Z</time>
      </trkpt>
      <trkpt lat="48.21457" lon="2.95081">
        <ele>148</ele>
        <time>2009-10-18T14:24:50.000Z</time>
      </trkpt>
      <trkpt lat="48.2123" lon="2.94621">
        <ele>145</ele>
        <time>2009-10-18T14:24:50.000Z</time>
      </trkpt>
      <trkpt lat="48.21191" lon="2.94365">
        <ele>145</ele>
        <time>2009-10-18T14:24:50.000Z</time>
      </trkpt>
      <trkpt lat="48.21071" lon="2.94203">
        <ele>143</ele>
        <time>2009-10-18T14:24:50.000Z</time>
      </trkpt>
      <trkpt lat="48.21098" lon="2.94156">
        <ele>142</ele>
        <time>2009-10-18T14:24:50.000Z</time>
      </trkpt>
      <trkpt lat="48.20855" lon="2.9416">
        <ele>145</ele>
        <time>2009-10-18T14:24:50.000Z</time>
      </trkpt>
      <trkpt lat="48.2077" lon="2.94071">
        <ele>145</ele>
        <time>2009-10-18T14:24:50.000Z</time>
      </trkpt>
      <trkpt lat="48.20604" lon="2.9413">
        <ele>144</ele>
        <time>2009-10-18T14:24:50.000Z</time>
      </trkpt>
      <trkpt lat="48.20424" lon="2.94074">
        <ele>143</ele>
        <time>2009-10-18T14:24:50.000Z</time>
      </trkpt>
      <trkpt lat="48.20293" lon="2.9412">
        <ele>143</ele>
        <time>2009-10-18T14:24:50.000Z</time>
      </trkpt>
      <trkpt lat="48.20249" lon="2.93924">
        <ele>142</ele>
        <time>2009-10-18T14:24:50.000Z</time>
      </trkpt>
      <trkpt lat="48.20161" lon="2.93694">
        <ele>139</ele>
        <time>2009-10-18T14:24:50.000Z</time>
      </trkpt>
      <trkpt lat="48.20058" lon="2.93565">
        <ele>133</ele>
        <time>2009-10-18T14:24:50.000Z</time>
      </trkpt>
      <trkpt lat="48.19991" lon="2.93471">
        <ele>130</ele>
        <time>2009-10-18T14:24:50.000Z</time>
      </trkpt>
      <trkpt lat="48.1983" lon="2.93321">
        <ele>127</ele>
        <time>2009-10-18T14:24:50.000Z</time>
      </trkpt>
      <trkpt lat="48.19776" lon="2.93226">
        <ele>125</ele>
        <time>2009-10-18T14:24:50.000Z</time>
      </trkpt>
      <trkpt lat="48.1979" lon="2.93139">
        <ele>129</ele>
        <time>2009-10-18T14:24:50.000Z</time>
      </trkpt>
      <trkpt lat="48.19719" lon="2.93057">
        <ele>125</ele>
        <time>2009-10-18T14:24:50.000Z</time>
      </trkpt>
      <trkpt lat="48.19642" lon="2.93177">
        <ele>129</ele>
        <time>2009-10-18T14:24:50.000Z</time>
      </trkpt>
      <trkpt lat="48.19493" lon="2.93209">
        <ele>124</ele>
        <time>2009-10-18T14:24:50.000Z</time>
      </trkpt>
      <trkpt lat="48.19322" lon="2.93382">
        <ele>129</ele>
        <time>2009-10-18T14:24:50.000Z</time>
      </trkpt>
      <trkpt lat="48.19087" lon="2.93507">
        <ele>126</ele>
        <time>2009-10-18T14:24:50.000Z</time>
      </trkpt>
      <trkpt lat="48.18992" lon="2.93641">
        <ele>124</ele>
        <time>2009-10-18T14:24:50.000Z</time>
      </trkpt>
      <trkpt lat="48.18586" lon="2.93838">
        <ele>139</ele>
        <time>2009-10-18T14:24:50.000Z</time>
      </trkpt>
      <trkpt lat="48.18388" lon="2.93856">
        <ele>137</ele>
        <time>2009-10-18T14:24:50.000Z</time>
      </trkpt>
      <trkpt lat="48.18396" lon="2.94239">
        <ele>137</ele>
        <time>2009-10-18T14:24:50.000Z</time>
      </trkpt>
      <trkpt lat="48.18475" lon="2.94448">
        <ele>139</ele>
        <time>2009-10-18T14:24:50.000Z</time>
      </trkpt>
      <trkpt lat="48.1851" lon="2.94765">
        <ele>130</ele>
        <time>2009-10-18T14:24:50.000Z</time>
      </trkpt>
      <trkpt lat="48.18509" lon="2.94812">
        <ele>131</ele>
        <time>2009-10-18T14:24:50.000Z</time>
      </trkpt>
      <trkpt lat="48.18567" lon="2.9492">
        <ele>137</ele>
        <time>2009-10-18T14:24:50.000Z</time>
      </trkpt>
      <trkpt lat="48.18557" lon="2.95229">
        <ele>138</ele>
        <time>2009-10-18T14:24:50.000Z</time>
      </trkpt>
      <trkpt lat="48.18628" lon="2.95324">
        <ele>139</ele>
        <time>2009-10-18T14:24:50.000Z</time>
      </trkpt>
      <trkpt lat="48.19115" lon="2.96836">
        <ele>146</ele>
        <time>2009-10-18T14:24:50.000Z</time>
      </trkpt>
      <trkpt lat="48.19159" lon="2.96944">
        <ele>146</ele>
        <time>2009-10-18T14:24:50.000Z</time>
      </trkpt>
      <trkpt lat="48.19176" lon="2.97065">
        <ele>147</ele>
        <time>2009-10-18T14:24:50.000Z</time>
      </trkpt>
      <trkpt lat="48.19292" lon="2.97369">
        <ele>147</ele>
        <time>2009-10-18T14:24:50.000Z</time>
      </trkpt>
      <trkpt lat="48.19322" lon="2.97538">
        <ele>149</ele>
        <time>2009-10-18T14:24:50.000Z</time>
      </trkpt>
      <trkpt lat="48.19439" lon="2.97566">
        <ele>151</ele>
        <time>2009-10-18T14:24:50.000Z</time>
      </trkpt>
      <trkpt lat="48.19626" lon="2.97824">
        <ele>151</ele>
        <time>2009-10-18T14:24:50.000Z</time>
      </trkpt>
      <trkpt lat="48.20015" lon="2.9908">
        <ele>152</ele>
        <time>2009-10-18T14:24:50.000Z</time>
      </trkpt>
      <trkpt lat="48.2005" lon="2.99235">
        <ele>152</ele>
        <time>2009-10-18T14:24:50.000Z</time>
      </trkpt>
      <trkpt lat="48.19995" lon="2.99375">
        <ele>152</ele>
        <time>2009-10-18T14:24:50.000Z</time>
      </trkpt>
      <trkpt lat="48.20249" lon="2.99937">
        <ele>148</ele>
        <time>2009-10-18T14:24:50.000Z</time>
      </trkpt>
    </trkseg>
  </trk>
</gpx>